Overview Statistics Trail Chart Weather Telemetry Raw packets
 

This is the latest recevied weather packets stored in our database for station/object WW5JC. If no packets are shown the sender has not sent any weather packets the latest 10 day(s).

<< 69 70 71 72 73 74 75 >>
Time Temp. Humidity Pressure Rain* Wind** Luminosity Snow
1788137530 33.33° C 45% 1014.7 hPa 0 mm - 3 W/m² -
1788137226 33.33° C 44% 1014.7 hPa 0 mm - 4 W/m² -
1788136922 33.89° C 43% 1014.5 hPa 0 mm - 7 W/m² -
1788136618 34.44° C 42% 1014.6 hPa 0 mm - 10 W/m² -
1788136314 34.44° C 41% 1014.6 hPa 0 mm - 13 W/m² -
1788136012 35° C 41% 1014.7 hPa 0 mm - 17 W/m² -
1788135707 35° C 40% 1014.7 hPa 0 mm - 20 W/m² -
1788135403 35.56° C 40% 1014.9 hPa 0 mm - 24 W/m² -
1788135098 35.56° C 38% 1014.9 hPa 0 mm - 27 W/m² -
1788134795 36.11° C 38% 1014.7 hPa 0 mm - 33 W/m² -
1788134489 36.11° C 38% 1014.9 hPa 0 mm - 37 W/m² -
1788134187 36.67° C 36% 1015 hPa 0 mm - 47 W/m² -
1788133888 36.67° C 37% 1015 hPa 0 mm - 55 W/m² -
1788133583 36.67° C 36% 1014.6 hPa 0 mm - 63 W/m² -
1788133278 36.67° C 36% 1015.1 hPa 0 mm - 71 W/m² -
1788132974 37.22° C 36% 1015 hPa 0 mm - 78 W/m² -
1788132670 37.22° C 36% 1014.9 hPa 0 mm - 91 W/m² -
1788132365 37.22° C 36% 1014.9 hPa 0 mm - 101 W/m² -
1788132056 37.22° C 36% 1015 hPa 0 mm - 112 W/m² -
1788131752 37.78° C 35% 1014.9 hPa 0 mm - 121 W/m² -
1788131450 37.78° C 35% 1014.9 hPa 0 mm - 131 W/m² -
1788131146 37.22° C 35% 1014.5 hPa 0 mm - 143 W/m² -
1788130846 36.67° C 36% 1014.7 hPa 0 mm - 158 W/m² -
1788130542 36.67° C 37% 1014.7 hPa 0 mm - 62 W/m² -
1788130242 37.78° C 35% 1014.7 hPa 0 mm - 65 W/m² -

* Rain latest hour (hover to see other rain measurements)
** Current wind speed in m/s (hover to see current wind gust speed)